Date String (YYYY-MM-DD hh:mm:ss) UTC,Instrument flags,Ambient pressure (hPa),Sample flow (lpm),Bypass flow (lpm),Sample temperature (°C),Ambient temperature (°C),ASC tube jacket temperature (°C),LED temperature (°C),Box temperature (°C),Sample RH (%),Span deviation,Mass concentration (μg/m³),Mass concentration (μg/m³),Mass concentration (μg/m³)
DateTimeUTC,F1_M11,P_M11,Q1_M11,Q2_M11,T1_M11,T2_M11,T3_M11,T4_M11,T5_M11,U1_M11,ZSPAN_M11,X0_M11,X2_M11,X1_M11
2023-04-08 04:00:00,,0829.8,5.00,0.00,24.8,23.0,00.0,33.3,26.3,10.4,0000.0,0007.77,0002.84,0001.55
2023-04-08 04:01:00,,0829.7,5.00,0.00,24.8,23.0,00.0,33.3,26.3,10.4,0000.0,0007.88,0002.89,0001.56
2023-04-08 04:02:00,,0829.8,4.99,0.00,24.8,22.9,00.0,33.3,26.3,10.3,0000.0,0008.08,0002.93,0001.56
2023-04-08 04:03:00,,0829.8,5.00,0.00,24.7,22.9,00.0,33.2,26.3,10.4,0000.0,0008.23,0002.93,0001.57
2023-04-08 04:04:00,,0829.8,5.00,0.00,24.7,22.9,00.0,33.2,26.2,10.4,0000.0,0008.40,0003.01,0001.58
2023-04-08 04:05:00,,0829.7,5.01,0.00,24.7,22.8,00.0,33.2,26.2,10.4,0000.0,0007.97,0002.99,0001.58
2023-04-08 04:06:00,,0829.8,5.00,0.00,24.7,22.8,00.0,33.2,26.2,10.5,0000.0,0008.11,0003.04,0001.60
2023-04-08 04:07:00,,0829.8,5.01,0.00,24.6,22.8,00.0,33.2,26.2,10.5,0000.0,0008.23,0003.09,0001.60
2023-04-08 04:08:00,,0829.8,5.00,0.00,24.6,22.8,00.0,33.2,26.1,10.5,0000.0,0008.39,0003.14,0001.60
2023-04-08 04:09:00,,0829.8,5.00,0.00,24.6,22.8,00.0,33.1,26.1,10.5,0000.0,0008.53,0003.17,0001.60
2023-04-08 04:10:00,,0829.8,5.00,0.00,24.6,22.7,00.0,33.1,26.1,10.5,0000.0,0008.59,0003.16,0001.58
2023-04-08 04:11:00,,0829.8,5.00,0.00,24.6,22.7,00.0,33.1,26.1,10.5,0000.0,0008.00,0003.15,0001.57
2023-04-08 04:12:00,,0829.8,5.00,0.00,24.5,22.7,00.0,33.1,26.0,10.6,0000.0,0007.95,0003.13,0001.56
2023-04-08 04:13:00,,0829.9,5.00,0.00,24.5,22.7,00.0,33.1,26.0,10.5,0000.0,0007.72,0003.13,0001.57
2023-04-08 04:14:00,,0830.0,5.00,0.00,24.5,22.7,00.0,33.1,26.0,10.4,0000.0,0007.62,0003.14,0001.57
2023-04-08 04:15:00,,0829.9,4.99,0.00,24.5,22.7,00.0,33.0,26.1,10.5,0000.0,0007.44,0003.11,0001.57
2023-04-08 04:16:00,,0830.0,5.00,0.00,24.5,22.7,00.0,33.0,26.1,10.4,0000.0,0007.42,0003.12,0001.58
2023-04-08 04:17:00,,0830.0,5.00,0.00,24.5,22.7,00.0,33.0,26.1,10.4,0000.0,0007.35,0003.10,0001.57
2023-04-08 04:18:00,,0830.0,5.00,0.00,24.6,22.8,00.0,33.0,26.1,10.6,0000.0,0007.52,0003.09,0001.58
2023-04-08 04:19:00,,0830.1,5.01,0.00,24.6,22.9,00.0,33.0,26.2,11.1,0000.0,0007.65,0003.06,0001.59
2023-04-08 04:20:00,,0830.1,5.00,0.00,24.6,22.9,00.0,33.0,26.2,11.2,0000.0,0008.06,0003.05,0001.61
2023-04-08 04:21:00,,0830.2,5.00,0.00,24.6,23.0,00.0,33.0,26.3,11.3,0000.0,0007.77,0003.05,0001.64
2023-04-08 04:22:00,,0830.1,5.00,0.00,24.6,23.1,00.0,33.0,26.3,11.4,0000.0,0008.18,0003.05,0001.66
2023-04-08 04:23:00,,0830.1,5.00,0.00,24.7,23.1,00.0,33.0,26.3,11.2,0000.0,0009.08,0003.06,0001.67
2023-04-08 04:24:00,,0830.1,5.00,0.00,24.7,23.1,00.0,33.0,26.3,11.2,0000.0,0009.08,0003.07,0001.68
2023-04-08 04:25:00,,0830.1,5.00,0.00,24.7,23.1,00.0,33.0,26.3,10.9,0000.0,0009.10,0003.10,0001.70
2023-04-08 04:26:00,,0830.1,5.00,0.00,24.7,23.1,00.0,33.0,26.2,10.8,0000.0,0009.70,0003.12,0001.71
2023-04-08 04:27:00,,0830.1,5.00,0.00,24.7,23.1,00.0,33.0,26.2,10.8,0000.0,0009.90,0003.05,0001.71
2023-04-08 04:28:00,,0830.1,5.00,0.00,24.7,23.1,00.0,33.0,26.2,10.6,0000.0,0010.49,0003.09,0001.73
2023-04-08 04:29:00,,0830.1,5.00,0.00,24.7,23.0,00.0,33.0,26.2,10.7,0000.0,0010.50,0003.08,0001.73
2023-04-08 04:30:00,,0830.1,5.01,0.00,24.7,23.0,00.0,33.0,26.1,10.7,0000.0,0011.04,0003.07,0001.73
2023-04-08 04:31:00,,0830.0,4.99,0.00,24.6,22.9,00.0,33.0,26.1,10.5,0000.0,0010.49,0002.97,0001.71
2023-04-08 04:32:00,,0830.0,4.99,0.00,24.6,22.8,00.0,33.0,26.0,10.2,0000.0,0010.93,0002.95,0001.68
2023-04-08 04:33:00,,0830.0,5.00,0.00,24.6,22.8,00.0,33.0,26.0,10.4,0000.0,0010.90,0002.95,0001.67
2023-04-08 04:34:00,,0830.1,5.01,0.00,24.5,22.7,00.0,33.0,26.0,10.3,0000.0,0009.95,0003.00,0001.66
2023-04-08 04:35:00,,0830.1,5.01,0.00,24.5,22.7,00.0,33.0,26.0,10.4,0000.0,0010.03,0003.06,0001.67
2023-04-08 04:36:00,,0830.1,5.00,0.00,24.5,22.7,00.0,33.0,26.0,10.8,0000.0,0010.16,0003.00,0001.66
2023-04-08 04:37:00,,0830.0,5.00,0.00,24.5,22.7,00.0,33.0,26.0,10.8,0000.0,0009.97,0002.98,0001.66
2023-04-08 04:38:00,,0830.0,5.00,0.00,24.5,22.7,00.0,32.9,26.0,11.0,0000.0,0009.61,0003.03,0001.66
2023-04-08 04:39:00,,0830.0,5.00,0.00,24.5,22.8,00.0,33.0,26.0,11.2,0000.0,0009.00,0003.05,0001.70
2023-04-08 04:40:00,,0830.1,5.00,0.00,24.5,22.8,00.0,32.9,26.1,11.3,0000.0,0008.86,0003.09,0001.74
2023-04-08 04:41:00,,0830.0,5.00,0.00,24.5,22.8,00.0,32.9,26.1,11.3,0000.0,0008.29,0003.12,0001.78
2023-04-08 04:42:00,,0830.0,5.00,0.00,24.5,22.8,00.0,32.9,26.0,11.4,0000.0,0008.13,0003.18,0001.84
2023-04-08 04:43:00,,0830.0,5.00,0.00,24.5,22.8,00.0,32.9,26.1,11.4,0000.0,0007.77,0003.27,0001.93
2023-04-08 04:44:00,,0830.0,5.00,0.00,24.5,22.9,00.0,32.9,26.1,11.3,0000.0,0007.67,0003.31,0001.98
2023-04-08 04:45:00,,0830.0,4.99,0.00,24.5,22.9,00.0,32.9,26.1,11.3,0000.0,0007.58,0003.31,0002.03
2023-04-08 04:46:00,,0830.0,5.00,0.00,24.6,22.9,00.0,32.9,26.1,11.3,0000.0,0008.17,0003.33,0002.07
2023-04-08 04:47:00,,0830.0,5.00,0.00,24.6,23.0,00.0,32.9,26.2,11.4,0000.0,0008.56,0003.42,0002.16
2023-04-08 04:48:00,,0830.0,5.00,0.00,24.6,23.0,00.0,32.9,26.2,11.4,0000.0,0009.22,0003.55,0002.29
2023-04-08 04:49:00,,0830.0,5.00,0.00,24.6,23.0,00.0,32.9,26.2,11.4,0000.0,0009.41,0003.64,0002.42
2023-04-08 04:50:00,,0830.0,5.00,0.00,24.6,23.0,00.0,32.9,26.2,11.5,0000.0,0009.85,0003.76,0002.52
2023-04-08 04:51:00,,0830.0,4.99,0.00,24.6,23.0,00.0,32.9,26.2,11.3,0000.0,0009.86,0003.81,0002.62
2023-04-08 04:52:00,,0830.0,5.00,0.00,24.6,23.0,00.0,32.9,26.2,11.1,0000.0,0009.99,0003.90,0002.70
2023-04-08 04:53:00,,0830.0,5.00,0.00,24.6,23.0,00.0,32.9,26.2,11.1,0000.0,0010.60,0003.94,0002.76
2023-04-08 04:54:00,,0830.0,5.00,0.00,24.6,23.0,00.0,32.9,26.2,10.9,0000.0,0010.78,0003.97,0002.80
2023-04-08 04:55:00,,0830.0,5.00,0.00,24.6,23.1,00.0,33.0,26.2,11.0,0000.0,0010.69,0003.97,0002.84
2023-04-08 04:56:00,,0830.0,5.00,0.00,24.6,23.1,00.0,33.0,26.2,11.0,0000.0,0010.72,0004.01,0002.90
2023-04-08 04:57:00,,0830.0,5.00,0.00,24.6,23.1,00.0,33.0,26.2,10.8,0000.0,0010.24,0004.04,0002.94
2023-04-08 04:58:00,,0830.0,5.01,0.00,24.6,23.0,00.0,33.0,26.2,10.8,0000.0,0009.74,0003.98,0002.93
2023-04-08 04:59:00,,0830.1,5.00,0.00,24.6,23.0,00.0,33.0,26.1,10.8,0000.0,0008.96,0003.93,0002.87
